Regional Weather Roundup
Issued by NWS Spokane, WA

Home | Current Version | Previous Version | Text Only | Print | Product List | Glossary On
Versions: 1 2 3 4 5 6 7 8 9 10 11 12 13 14 15 16 17 18 19 20 21 22 23 24 25 26 27 28 29 30 31 32 33 34 35 36 37 38 39 40 41 42 43 44 45 46 47 48 49 50
559
NZUS01 KOTX 201205
RWROTX

Eastern Washington/Northern Idaho Roundup
National Weather Service, Spokane WA
400 AM PST SAT JAN 20 2018

Note: "fair" indicated few or no clouds below 12,000 feet with no
significant weather and/or obstructions to visibility.

...Northeast Washington and Northern Idaho Panhandle...

CITY           SKY/WX    TMP DP  RH WIND       PRES   REMARKS
Spokane Intl   CLOUDY    33  31  92 S9        29.94R WCI  25
Spokane Downto CLOUDY    37  30  75 VRB6      29.96S
Coeur d Alene  CLOUDY    35  31  85 S9        29.95S WCI  28
Deer Park      CLOUDY    34  30  85 S6        29.95R WCI  29
Sandpoint      CLOUDY    34  32  93 S7        29.94S WCI  28
Bonners Ferry  CLOUDY    34  32  93 CALM      29.91S

...Southeast Washington and southern Idaho Panhandle...

CITY           SKY/WX    TMP DP  RH WIND       PRES   REMARKS
Walla Walla    CLOUDY    43  29  57 S9        30.00S
Pullman/Moscow MOCLDY    34  29  82 SE6       29.99R WCI  29
Lewiston       CLEAR     32  31  96 CALM      30.01S FOG
Lowell           N/A     34  31  88 CALM      30.06F
Grangeville    FAIR      28  28 100 N3        29.97S

...Columbia Basin...

CITY           SKY/WX    TMP DP  RH WIND       PRES   REMARKS
Ephrata        PTCLDY    31  26  82 N3        29.93R
Moses Lake     CLOUDY    32  31  96 S7        29.93F WCI  26
Pasco          MOCLDY    40  31  70 S15       30.00F
Richland       CLOUDY    43  33  67 S12G21    29.99S
Hermiston      CLOUDY    39  31  72 S10       30.01F
Pendleton      CLOUDY    38  28  67 S8        30.00S

...East Slopes Cascades...

CITY           SKY/WX    TMP DP  RH WIND       PRES   REMARKS
The Dalles     CLOUDY    33  31  92 CALM      30.05F
Yakima         CLOUDY    36  31  82 W6        29.96R
Ellensburg     CLOUDY    31  28  89 E3        29.93R
Stampede Pass  LGT SNOW  29  27  92 VRB3      29.87S VSB 3/4
Wenatchee      CLOUDY    30  30 100 W3        29.93R
Omak           CLOUDY    31  31 100 S3        29.92S
Sunnyside      CLOUDY    33  30  90 NE3       29.98R

...Southern British Columbia...

CITY           SKY/WX    TMP DP  RH WIND       PRES   REMARKS

...Western Montana...

CITY           SKY/WX    TMP DP  RH WIND       PRES   REMARKS
Kalispell      CLOUDY    33  27  78 S9        29.92R WCI  25
Missoula       CLOUDY    30  23  75 SE6       29.96S WCI  24

...Neighboring Cities...

CITY           SKY/WX    TMP DP  RH WIND       PRES   REMARKS
Seattle        CLOUDY    40  37  89 S13       29.99S
Portland       CLOUDY    43  40  89 SW9       30.09S
Boise          CLOUDY    31  25  78 S6        30.03R WCI  25
Great Falls    CLEAR     27  17  66 SW15      29.84R WCI  15



USA.gov is the U.S. government's official web portal to all federal, state and local government web resources and services.